TimeMST,TemperatureF,Dew PointF,Humidity,Sea Level PressureIn,VisibilityMPH,Wind Direction,Wind SpeedMPH,Gust SpeedMPH,PrecipitationIn,Events,Conditions,WindDirDegrees,DateUTC
12:51 AM,9.0,6.1,88,30.44,4.0,Calm,Calm,-,N/A,,Clear,0,2014-01-26 07:51:00
1:40 AM,7.0,3.9,87,30.26,1.8,Calm,Calm,-,N/A,,Clear,0,2014-01-26 08:40:00
1:51 AM,7.0,3.9,87,30.43,0.5,Calm,Calm,-,N/A,Fog,Light Freezing Fog,0,2014-01-26 08:51:00
1:58 AM,6.1,3.9,91,30.26,0.2,Calm,Calm,-,N/A,Fog,Light Freezing Fog,0,2014-01-26 08:58:00
2:14 AM,5.0,3.0,92,30.25,1.5,Calm,Calm,-,N/A,,Scattered Clouds,0,2014-01-26 09:14:00
2:17 AM,5.0,1.9,87,30.25,3.0,Calm,Calm,-,N/A,,Scattered Clouds,0,2014-01-26 09:17:00
2:26 AM,3.9,-0.0,84,30.25,1.0,Calm,Calm,-,N/A,,Mist,0,2014-01-26 09:26:00
2:30 AM,3.9,-0.0,84,30.25,0.2,Calm,Calm,-,N/A,Fog,Light Freezing Fog,0,2014-01-26 09:30:00
2:51 AM,5.0,1.9,87,30.41,0.5,Calm,Calm,-,N/A,Fog,Light Freezing Fog,0,2014-01-26 09:51:00
3:01 AM,3.9,-0.0,84,30.25,1.0,Calm,Calm,-,N/A,,Mist,0,2014-01-26 10:01:00
3:08 AM,3.0,-0.9,84,30.25,0.2,Calm,Calm,-,N/A,Fog,Light Freezing Fog,0,2014-01-26 10:08:00
3:51 AM,1.9,-0.9,88,30.41,0.2,Calm,Calm,-,N/A,Fog,Light Freezing Fog,0,2014-01-26 10:51:00
4:19 AM,3.0,-0.0,87,30.24,0.2,Calm,Calm,-,N/A,Fog,Light Freezing Fog,0,2014-01-26 11:19:00
4:25 AM,3.0,-2.0,80,30.24,0.2,Calm,Calm,-,N/A,,Haze,0,2014-01-26 11:25:00
4:51 AM,3.9,-0.9,80,30.40,0.2,Calm,Calm,-,N/A,,Haze,0,2014-01-26 11:51:00
5:25 AM,5.0,-0.0,80,30.23,2.5,East,4.6,-,N/A,,Haze,80,2014-01-26 12:25:00
5:29 AM,6.1,1.0,80,30.23,5.0,East,3.5,-,N/A,,Haze,80,2014-01-26 12:29:00
5:51 AM,3.9,-2.0,76,30.41,5.0,Calm,Calm,-,N/A,,Haze,0,2014-01-26 12:51:00
5:56 AM,3.0,-2.9,76,30.23,1.8,Calm,Calm,-,N/A,,Haze,0,2014-01-26 12:56:00
6:01 AM,1.9,-2.9,80,30.23,0.5,West,3.5,-,N/A,,Haze,260,2014-01-26 13:01:00
6:11 AM,1.9,-2.9,80,30.23,0.2,West,4.6,-,N/A,,Haze,270,2014-01-26 13:11:00
6:16 AM,1.0,-2.9,83,30.23,0.2,West,3.5,-,N/A,Fog,Light Freezing Fog,270,2014-01-26 13:16:00
6:51 AM,3.0,-2.0,80,30.41,0.2,Calm,Calm,-,N/A,,Haze,0,2014-01-26 13:51:00
7:51 AM,1.9,-2.0,83,30.43,0.2,Calm,Calm,-,N/A,Fog,Light Freezing Fog,0,2014-01-26 14:51:00
8:51 AM,1.9,-2.9,80,30.44,0.2,NW,3.5,-,N/A,,Haze,310,2014-01-26 15:51:00
9:36 AM,6.1,1.0,80,30.22,1.0,Calm,Calm,-,N/A,,Haze,0,2014-01-26 16:36:00
9:49 AM,8.6,3.2,79,30.23,0.8,WSW,3.5,-,N/A,,Mist,250,2014-01-26 16:49:00
9:51 AM,8.1,3.0,80,30.42,0.5,West,3.5,-,N/A,,Haze,270,2014-01-26 16:51:00
10:29 AM,12.0,5.0,73,30.24,1.2,Calm,Calm,-,N/A,,Haze,0,2014-01-26 17:29:00
10:37 AM,14.0,7.0,74,30.23,2.5,Calm,Calm,-,N/A,,Haze,0,2014-01-26 17:37:00
10:43 AM,15.1,8.1,74,30.23,3.0,Calm,Calm,-,N/A,,Haze,0,2014-01-26 17:43:00
10:51 AM,14.0,10.0,84,30.41,4.0,Calm,Calm,-,N/A,,Clear,0,2014-01-26 17:51:00
11:51 AM,15.1,12.0,88,30.39,4.0,West,3.5,-,N/A,,Clear,270,2014-01-26 18:51:00
12:51 PM,19.0,14.0,81,30.35,5.0,West,3.5,-,N/A,,Haze,280,2014-01-26 19:51:00
1:51 PM,21.0,15.1,78,30.31,6.0,WNW,3.5,-,N/A,,Haze,300,2014-01-26 20:51:00
2:51 PM,25.0,16.0,69,30.30,6.0,Calm,Calm,-,N/A,,Haze,0,2014-01-26 21:51:00
3:51 PM,25.0,15.1,66,30.31,6.0,Calm,Calm,-,N/A,,Haze,0,2014-01-26 22:51:00
4:51 PM,21.9,15.1,75,30.30,5.0,Calm,Calm,-,N/A,,Haze,0,2014-01-26 23:51:00
5:51 PM,21.9,12.9,68,30.29,6.0,Calm,Calm,-,N/A,,Haze,0,2014-01-27 00:51:00
6:51 PM,15.1,10.0,80,30.32,6.0,Calm,Calm,-,N/A,,Haze,0,2014-01-27 01:51:00
7:51 PM,16.0,10.0,77,30.31,5.0,Calm,Calm,-,N/A,,Haze,0,2014-01-27 02:51:00
8:51 PM,14.0,9.0,80,30.31,5.0,South,5.8,-,N/A,,Haze,190,2014-01-27 03:51:00
9:51 PM,15.1,10.9,84,30.27,5.0,Calm,Calm,-,N/A,,Clear,0,2014-01-27 04:51:00
10:51 PM,10.9,6.1,81,30.25,5.0,Calm,Calm,-,N/A,,Haze,0,2014-01-27 05:51:00
11:51 PM,7.0,3.9,87,30.27,4.0,NNW,5.8,-,N/A,,Clear,330,2014-01-27 06:51:00